TimeCDT,TemperatureF,Dew PointF,Humidity,Sea Level PressureIn,VisibilityMPH,Wind Direction,Wind SpeedMPH,Gust SpeedMPH,PrecipitationIn,Events,Conditions,WindDirDegrees,DateUTC
12:13 AM,35.6,33.8,93,29.82,10.0,ESE,19.6,23.0,N/A,,Scattered Clouds,110,2013-04-06 05:13:00
12:33 AM,35.6,33.8,93,29.80,10.0,ESE,17.3,-,N/A,,Clear,110,2013-04-06 05:33:00
12:52 AM,35.6,33.8,93,29.79,10.0,ESE,20.7,25.3,N/A,,Clear,110,2013-04-06 05:52:00
1:13 AM,35.6,33.8,93,29.78,10.0,ESE,19.6,25.3,N/A,,Clear,110,2013-04-06 06:13:00
1:32 AM,35.6,33.8,93,29.77,10.0,ESE,19.6,24.2,N/A,,Clear,120,2013-04-06 06:32:00
1:53 AM,35.6,33.8,93,29.76,10.0,ESE,18.4,24.2,N/A,,Clear,120,2013-04-06 06:53:00
2:13 AM,35.6,33.8,93,29.75,10.0,ESE,15.0,-,N/A,,Clear,110,2013-04-06 07:13:00
2:32 AM,35.6,33.8,93,29.73,10.0,ESE,15.0,-,N/A,,Scattered Clouds,110,2013-04-06 07:32:00
2:53 AM,37.4,33.8,87,29.71,10.0,ESE,16.1,-,N/A,,Scattered Clouds,110,2013-04-06 07:53:00
3:13 AM,37.4,33.8,87,29.71,10.0,ESE,11.5,-,N/A,,Scattered Clouds,110,2013-04-06 08:13:00
3:32 AM,37.4,33.8,87,29.70,10.0,ESE,12.7,-,N/A,,Mostly Cloudy,110,2013-04-06 08:32:00
3:53 AM,37.4,33.8,87,29.68,10.0,ESE,16.1,-,N/A,,Scattered Clouds,120,2013-04-06 08:53:00
4:13 AM,37.4,33.8,87,29.66,10.0,ESE,16.1,-,N/A,,Scattered Clouds,110,2013-04-06 09:13:00
4:32 AM,37.4,33.8,87,29.66,10.0,ESE,10.4,-,N/A,,Scattered Clouds,110,2013-04-06 09:32:00
4:53 AM,37.4,33.8,87,29.65,10.0,ESE,11.5,-,N/A,,Mostly Cloudy,120,2013-04-06 09:53:00
5:13 AM,37.4,33.8,87,29.64,10.0,East,10.4,-,N/A,,Scattered Clouds,100,2013-04-06 10:13:00
5:33 AM,37.4,33.8,87,29.63,10.0,East,10.4,-,N/A,,Scattered Clouds,100,2013-04-06 10:33:00
5:53 AM,39.2,33.8,81,29.64,10.0,ESE,10.4,-,N/A,,Mostly Cloudy,110,2013-04-06 10:53:00
6:12 AM,39.2,35.6,87,29.63,10.0,ESE,11.5,-,N/A,,Overcast,110,2013-04-06 11:12:00
6:33 AM,39.2,35.6,87,29.64,10.0,East,9.2,-,N/A,,Overcast,100,2013-04-06 11:33:00
6:53 AM,39.2,35.6,87,29.62,10.0,ESE,12.7,-,N/A,,Drizzle,110,2013-04-06 11:53:00
7:12 AM,39.2,35.6,87,29.60,10.0,ESE,16.1,-,N/A,,Overcast,110,2013-04-06 12:12:00
7:33 AM,39.2,35.6,87,29.59,10.0,ESE,13.8,20.7,N/A,Rain,Rain,120,2013-04-06 12:33:00
7:53 AM,39.2,35.6,87,29.60,10.0,ESE,13.8,-,N/A,,Scattered Clouds,120,2013-04-06 12:53:00
8:12 AM,39.2,35.6,87,29.60,10.0,ESE,13.8,-,N/A,,Scattered Clouds,120,2013-04-06 13:12:00
8:33 AM,39.2,35.6,87,29.59,10.0,ESE,13.8,-,N/A,,Clear,120,2013-04-06 13:33:00
8:53 AM,41.0,35.6,81,29.57,10.0,ESE,15.0,-,N/A,,Clear,120,2013-04-06 13:53:00
9:12 AM,42.8,35.6,76,29.56,10.0,SE,15.0,-,N/A,,Clear,130,2013-04-06 14:12:00
9:33 AM,42.8,37.4,81,29.55,10.0,SE,12.7,19.6,N/A,,Clear,130,2013-04-06 14:33:00
9:52 AM,44.6,37.4,76,29.54,10.0,SE,12.7,-,N/A,,Clear,130,2013-04-06 14:52:00
10:13 AM,44.6,37.4,76,29.54,10.0,SE,11.5,-,N/A,,Clear,130,2013-04-06 15:13:00
10:33 AM,46.4,37.4,71,29.53,10.0,ESE,16.1,-,N/A,,Clear,120,2013-04-06 15:33:00
10:52 AM,46.4,39.2,76,29.53,10.0,ESE,10.4,-,N/A,,Clear,120,2013-04-06 15:52:00
11:13 AM,48.2,39.2,71,29.53,10.0,SE,9.2,-,N/A,,Clear,130,2013-04-06 16:13:00
11:33 AM,48.2,41.0,76,29.54,10.0,SE,4.6,-,N/A,,Clear,140,2013-04-06 16:33:00
11:52 AM,50.0,41.0,71,29.54,10.0,SE,4.6,-,N/A,,Clear,130,2013-04-06 16:52:00
12:12 PM,51.8,41.0,67,29.54,10.0,SE,3.5,-,N/A,,Scattered Clouds,130,2013-04-06 17:12:00
12:33 PM,51.8,42.8,71,29.54,10.0,Calm,Calm,-,N/A,,Overcast,0,2013-04-06 17:33:00
12:53 PM,51.8,42.8,71,29.53,10.0,North,6.9,-,N/A,,Overcast,360,2013-04-06 17:53:00
1:12 PM,48.2,42.8,82,29.54,10.0,North,5.8,-,N/A,Rain,Light Rain,360,2013-04-06 18:12:00
1:33 PM,46.4,42.8,87,29.54,10.0,North,8.1,-,N/A,Rain,Light Rain,360,2013-04-06 18:33:00
1:53 PM,46.4,42.8,87,29.55,7.0,NNW,8.1,-,N/A,Rain,Light Rain,330,2013-04-06 18:53:00
2:12 PM,46.4,42.8,87,29.55,7.0,NNW,9.2,-,N/A,Rain,Light Rain,330,2013-04-06 19:12:00
2:33 PM,44.6,42.8,93,29.56,7.0,NNW,9.2,-,N/A,Rain,Rain,340,2013-04-06 19:33:00
2:53 PM,44.6,42.8,93,29.56,10.0,NNW,10.4,-,N/A,,Mostly Cloudy,330,2013-04-06 19:53:00
3:12 PM,42.8,41.0,93,29.56,10.0,NNW,12.7,-,N/A,,Light Drizzle,340,2013-04-06 20:12:00
3:33 PM,42.8,41.0,93,29.57,10.0,NNW,12.7,-,N/A,,Light Drizzle,340,2013-04-06 20:33:00
3:53 PM,44.6,41.0,87,29.58,10.0,NNW,15.0,-,N/A,,Mostly Cloudy,330,2013-04-06 20:53:00
4:12 PM,44.6,39.2,81,29.58,10.0,NW,16.1,-,N/A,,Scattered Clouds,320,2013-04-06 21:12:00
4:33 PM,46.4,39.2,76,29.59,10.0,NNW,15.0,21.9,N/A,,Mostly Cloudy,330,2013-04-06 21:33:00
4:52 PM,44.6,37.4,76,29.60,10.0,NW,12.7,-,N/A,,Overcast,320,2013-04-06 21:52:00
5:13 PM,44.6,37.4,76,29.61,10.0,NW,15.0,-,N/A,,Overcast,320,2013-04-06 22:13:00
5:32 PM,42.8,37.4,81,29.63,10.0,NNW,16.1,20.7,N/A,,Overcast,330,2013-04-06 22:32:00
5:53 PM,42.8,37.4,81,29.64,10.0,NNW,17.3,20.7,N/A,,Overcast,330,2013-04-06 22:53:00
6:13 PM,42.8,37.4,81,29.66,10.0,NW,12.7,20.7,N/A,,Overcast,320,2013-04-06 23:13:00
6:33 PM,42.8,37.4,81,29.67,10.0,NW,11.5,-,N/A,,Overcast,320,2013-04-06 23:33:00
6:52 PM,42.8,35.6,76,29.68,10.0,NW,12.7,21.9,N/A,,Overcast,310,2013-04-06 23:52:00
7:13 PM,42.8,35.6,76,29.69,10.0,NW,11.5,16.1,N/A,,Overcast,320,2013-04-07 00:13:00
7:33 PM,41.0,35.6,81,29.69,10.0,NW,9.2,-,N/A,,Overcast,310,2013-04-07 00:33:00
7:52 PM,41.0,35.6,81,29.70,10.0,NNW,15.0,20.7,N/A,,Overcast,330,2013-04-07 00:52:00
8:13 PM,39.2,35.6,87,29.71,10.0,NW,10.4,-,N/A,,Overcast,320,2013-04-07 01:13:00
8:33 PM,39.2,35.6,87,29.72,10.0,NW,9.2,-,N/A,,Overcast,310,2013-04-07 01:33:00
8:52 PM,39.2,35.6,87,29.72,10.0,NW,12.7,16.1,N/A,,Overcast,310,2013-04-07 01:52:00
9:13 PM,39.2,35.6,87,29.74,10.0,WNW,9.2,-,N/A,,Overcast,300,2013-04-07 02:13:00
9:33 PM,37.4,35.6,93,29.75,10.0,WNW,9.2,-,N/A,,Overcast,300,2013-04-07 02:33:00
9:52 PM,37.4,35.6,93,29.74,10.0,NW,9.2,-,N/A,,Overcast,320,2013-04-07 02:52:00
10:13 PM,37.4,35.6,93,29.75,10.0,WNW,8.1,-,N/A,,Overcast,300,2013-04-07 03:13:00
10:33 PM,37.4,35.6,93,29.76,10.0,WNW,8.1,-,N/A,,Overcast,300,2013-04-07 03:33:00
10:52 PM,37.4,35.6,93,29.76,10.0,WNW,5.8,-,N/A,,Overcast,290,2013-04-07 03:52:00
11:13 PM,37.4,35.6,93,29.77,10.0,WNW,9.2,-,N/A,,Overcast,290,2013-04-07 04:13:00
11:33 PM,37.4,35.6,93,29.78,10.0,WNW,9.2,-,N/A,,Overcast,290,2013-04-07 04:33:00
11:52 PM,37.4,35.6,93,29.79,10.0,WNW,8.1,-,N/A,,Overcast,290,2013-04-07 04:52:00